Flag for Germany Weather past 2 weeks in Bruchsal, Baden-Württemberg, Germany

Now
77 °F

Sunny.


Feels Like: 79 °F
Forecast: 63 / 90 °F
Wind: 5 mph from North

Location: Baden Wurttemberg - Neuostheim

Current Time: Jun 30, 2015 at 11:22:06 AM

Latest Report: Jun 30, 2015 at 10:50 AM


Visibility: 10 mi

Pressure: 30.15 "Hg

Humidity: 47%

Dew point: 55 °F

Location of BruchsalLocation

Historic Weather in Bruchsal — Graph

°F

Bruchsal temperature yesterday

Maximum temperature yesterday: 84 °F (at 4:20 PM)
Minimum temperature yesterday: 63 °F (at 6:20 AM)
Average temperature yesterday: 76 °F

Past Weeks' High & Low Weather Summary

 TemperatureHumidityPressure
High84 °F (Jun 29, 4:20 PM)100% (Jun 18, 10:20 AM)30.27 "Hg (Jun 18, 10:20 AM)
Low50 °F (Jun 17, 5:20 AM)27% (Jun 17, 5:50 PM)29.74 "Hg (Jun 22, 9:20 PM)
Average65 °F61%30.09 "Hg
* Reported Jun 15 9:20 AM — Jun 30 9:50 AM, Bruchsal, Weather by CustomWeather, © 2015

Note: Actual official high and low records may vary slightly from our data, if they occured in-between our weather recording intervals... More about our weather records

Advertising

Bruchsal weather history for previous 24 hours

 ConditionsComfort  
Time TempWeatherWind HumidityBarometerVisibility
9:50 AM
Tue, Jun 30
75 °FPassing clouds.6 mph50%30.15 "HgN/A
9:20 AM73 °FPassing clouds.5 mph53%30.15 "HgN/A
8:50 AM72 °FPassing clouds.5 mph53%30.15 "HgN/A
8:20 AM70 °FPassing clouds.5 mph57%30.15 "HgN/A
7:50 AM68 °FPassing clouds.5 mph60%30.15 "HgN/A
7:20 AM66 °FSunny.3 mph68%30.15 "Hg10 mi
6:50 AM64 °FSunny.3 mph68%30.15 "Hg10 mi
6:20 AM63 °FClear.3 mph73%30.15 "Hg10 mi
5:50 AM63 °FClear.3 mph73%30.15 "Hg10 mi
9:50 PM
Mon, Jun 29
77 °FSunny.9 mph47%30.12 "Hg10 mi
9:20 PM79 °FSunny.10 mph48%30.12 "Hg10 mi
8:50 PM81 °FPassing clouds.6 mph42%30.12 "HgN/A
8:20 PM82 °FPassing clouds.5 mph40%30.09 "HgN/A
7:50 PM84 °FSunny.2 mph37%30.09 "Hg10 mi
7:20 PM82 °FPassing clouds.5 mph42%30.09 "HgN/A
6:50 PM82 °FPassing clouds.5 mph40%30.09 "HgN/A
6:20 PM84 °FPassing clouds.5 mph37%30.09 "HgN/A
5:50 PM84 °FPassing clouds.6 mph37%30.09 "HgN/A
5:20 PM84 °FSunny.3 mph37%30.09 "Hg10 mi
4:50 PM84 °FPassing clouds.6 mph37%30.09 "HgN/A
4:20 PM84 °FPleasantly warm.6 mph33%30.12 "HgN/A
3:50 PM82 °FSunny.6 mph37%30.12 "Hg10 mi
3:20 PM82 °FPassing clouds.6 mph35%30.12 "HgN/A
2:50 PM82 °FSunny.6 mph35%30.12 "Hg10 mi
2:20 PM81 °FSunny.3 mph34%30.12 "Hg10 mi
1:50 PM81 °FPassing clouds.5 mph37%30.12 "HgN/A
1:20 PM79 °FPassing clouds.6 mph42%30.15 "HgN/A
12:50 PM77 °FPassing clouds.6 mph44%30.15 "HgN/A
12:20 PM75 °FPassing clouds.6 mph50%30.15 "HgN/A
11:50 AM73 °FPassing clouds.5 mph57%30.15 "HgN/A
11:20 AM72 °FPassing clouds.7 mph57%30.15 "HgN/A
Weather by CustomWeather, © 2015

See weather overviewHow to use our weather pages